| time (UTC) | temp F | wind direction | speed MPH | gust MPH | rain 1hr in | rain 24hr in | rain mn in | humidity % | barometer mb |
| 20260502224002 | 73 | 76 | 4.0 | 8.0 | 0.00 | 0.00 | 0.00 | 12 | 1016.9 |
| 20260502223503 | 74 | 74 | 2.0 | 5.0 | 0.00 | 0.00 | 0.00 | 11 | 1017.0 |
| 20260502223007 | 73 | 180 | 1.0 | 6.0 | 0.00 | 0.00 | 0.00 | 12 | 1017.0 |
| 20260502222502 | 73 | 162 | 2.0 | 6.0 | 0.00 | 0.00 | 0.00 | 12 | 1017.1 |
| 20260502222003 | 73 | 159 | 1.0 | 11.0 | 0.00 | 0.00 | 0.00 | 12 | 1017.1 |
| 20260502221512 | 72 | 98 | 3.0 | 11.0 | 0.00 | 0.00 | 0.00 | 11 | 1017.3 |
| 20260502221003 | 72 | 38 | 2.0 | 8.0 | 0.00 | 0.00 | 0.00 | 12 | 1017.3 |
| 20260502220506 | 73 | 67 | 1.0 | 8.0 | 0.00 | 0.00 | 0.00 | 12 | 1017.3 |
| 20260502220012 | 72 | 126 | 2.0 | 9.0 | 0.00 | 0.00 | 0.00 | 13 | 1017.3 |
| 20260502215504 | 71 | 265 | 3.0 | 9.0 | 0.00 | 0.00 | 0.00 | 12 | 1017.4 |
| 20260502215004 | 72 | 48 | 4.0 | 9.0 | 0.00 | 0.00 | 0.00 | 12 | 1017.5 |
| 20260502214510 | 72 | 44 | 5.0 | 12.0 | 0.00 | 0.00 | 0.00 | 12 | 1017.7 |
| 20260502214006 | 72 | 65 | 6.0 | 12.0 | 0.00 | 0.00 | 0.00 | 13 | 1017.7 |
| 20260502213506 | 73 | 55 | 2.0 | 9.0 | 0.00 | 0.00 | 0.00 | 12 | 1017.8 |
| 20260502213024 | 73 | 34 | 2.0 | 7.0 | 0.00 | 0.00 | 0.00 | 12 | 1017.9 |
| 20260502212508 | 74 | 58 | 2.0 | 7.0 | 0.00 | 0.00 | 0.00 | 11 | 1018.0 |
| 20260502212007 | 74 | 125 | 1.0 | 5.0 | 0.00 | 0.00 | 0.00 | 13 | 1018.0 |
| 20260502211509 | 73 | 186 | 2.0 | 5.0 | 0.00 | 0.00 | 0.00 | 12 | 1018.2 |
| 20260502211003 | 73 | 235 | 1.0 | 5.0 | 0.00 | 0.00 | 0.00 | 13 | 1018.2 |
| 20260502210503 | 73 | 169 | 2.0 | 4.0 | 0.00 | 0.00 | 0.00 | 12 | 1018.4 |
| 20260502210012 | 73 | 97 | 2.0 | 6.0 | 0.00 | 0.00 | 0.00 | 12 | 1018.5 |
| 20260502205505 | 73 | 112 | 2.0 | 9.0 | 0.00 | 0.00 | 0.00 | 13 | 1018.5 |
| 20260502205005 | 72 | 165 | 3.0 | 9.0 | 0.00 | 0.00 | 0.00 | 13 | 1018.7 |
| 20260502204513 | 72 | 107 | 2.0 | 9.0 | 0.00 | 0.00 | 0.00 | 14 | 1018.7 |
| 20260502204006 | 72 | 82 | 4.0 | 9.0 | 0.00 | 0.00 | 0.00 | 14 | 1018.7 |
| 20260502203503 | 72 | 77 | 3.0 | 9.0 | 0.00 | 0.00 | 0.00 | 14 | 1018.7 |
| 20260502203006 | 72 | 10 | 3.0 | 6.0 | 0.00 | 0.00 | 0.00 | 13 | 1018.7 |
| 20260502202511 | 72 | 93 | 2.0 | 6.0 | 0.00 | 0.00 | 0.00 | 13 | 1018.8 |
| 20260502202005 | 72 | 113 | 2.0 | 7.0 | 0.00 | 0.00 | 0.00 | 14 | 1018.9 |
| 20260502201525 | 72 | 82 | 1.0 | 8.0 | 0.00 | 0.00 | 0.00 | 13 | 1018.9 |
| 20260502201008 | 72 | 98 | 3.0 | 7.0 | 0.00 | 0.00 | 0.00 | 14 | 1018.9 |
| 20260502200509 | 72 | 81 | 2.0 | 7.0 | 0.00 | 0.00 | 0.00 | 14 | 1018.9 |
| 20260502200013 | 72 | 78 | 2.0 | 7.0 | 0.00 | 0.00 | 0.00 | 14 | 1018.9 |
| 20260502195503 | 72 | 231 | 2.0 | 7.0 | 0.00 | 0.00 | 0.00 | 14 | 1019.0 |
| 20260502195006 | 71 | 63 | 2.0 | 8.0 | 0.00 | 0.00 | 0.00 | 15 | 1019.1 |
| 20260502194511 | 70 | 146 | 1.0 | 8.0 | 0.00 | 0.00 | 0.00 | 16 | 1019.1 |
| 20260502194006 | 69 | 153 | 3.0 | 5.0 | 0.00 | 0.00 | 0.00 | 15 | 1019.1 |
| 20260502193506 | 70 | 39 | 3.0 | 6.0 | 0.00 | 0.00 | 0.00 | 15 | 1019.2 |
| 20260502193012 | 70 | 336 | 1.0 | 8.0 | 0.00 | 0.00 | 0.00 | 15 | 1019.3 |
| 20260502192505 | 69 | 122 | 2.0 | 8.0 | 0.00 | 0.00 | 0.00 | 16 | 1019.4 |
| 20260502192006 | 69 | 58 | 4.0 | 8.0 | 0.00 | 0.00 | 0.00 | 15 | 1019.3 |
| 20260502191507 | 69 | 42 | 4.0 | 8.0 | 0.00 | 0.00 | 0.00 | 16 | 1019.5 |
| 20260502191003 | 69 | 54 | 2.0 | 7.0 | 0.00 | 0.00 | 0.00 | 17 | 1019.6 |
| 20260502190506 | 69 | 94 | 3.0 | 10.0 | 0.00 | 0.00 | 0.00 | 16 | 1019.7 |
| 20260502190016 | 69 | 115 | 4.0 | 10.0 | 0.00 | 0.00 | 0.00 | 16 | 1019.8 |
| 20260502185509 | 70 | 72 | 3.0 | 5.0 | 0.00 | 0.00 | 0.00 | 16 | 1019.9 |
| 20260502185011 | 69 | 80 | 1.0 | 4.0 | 0.00 | 0.00 | 0.00 | 16 | 1019.9 |
| 20260502184513 | 68 | 140 | 1.0 | 10.0 | 0.00 | 0.00 | 0.00 | 17 | 1019.9 |
| 20260502184002 | 68 | 105 | 2.0 | 10.0 | 0.00 | 0.00 | 0.00 | 17 | 1020.0 |
| 20260502183503 | 68 | 349 | 3.0 | 9.0 | 0.00 | 0.00 | 0.00 | 16 | 1020.0 |
| 20260502183010 | 68 | 183 | 3.0 | 9.0 | 0.00 | 0.00 | 0.00 | 18 | 1020.3 |
| 20260502182506 | 68 | 155 | 2.0 | 6.0 | 0.00 | 0.00 | 0.00 | 17 | 1020.3 |
| 20260502182006 | 67 | 211 | 1.0 | 9.0 | 0.00 | 0.00 | 0.00 | 17 | 1020.5 |
| 20260502181513 | 67 | 119 | 3.0 | 9.0 | 0.00 | 0.00 | 0.00 | 17 | 1020.5 |
| 20260502181007 | 67 | 198 | 3.0 | 5.0 | 0.00 | 0.00 | 0.00 | 17 | 1020.6 |
| 20260502180508 | 67 | 97 | 1.0 | 10.0 | 0.00 | 0.00 | 0.00 | 16 | 1020.8 |
| 20260502170509 | 64 | 50 | 1.0 | 7.0 | 0.00 | 0.00 | 0.00 | 18 | 1021.3 |
| 20260502164003 | 63 | 22 | 3.0 | 8.0 | 0.00 | 0.00 | 0.00 | 19 | 1021.3 |
| 20260502163503 | 63 | 342 | 1.0 | 8.0 | 0.00 | 0.00 | 0.00 | 19 | 1021.3 |
| 20260502163014 | 63 | 58 | 5.0 | 8.0 | 0.00 | 0.00 | 0.00 | 18 | 1021.4 |
| 20260502162508 | 62 | 346 | 2.0 | 8.0 | 0.00 | 0.00 | 0.00 | 20 | 1021.4 |
| 20260502162007 | 62 | 20 | 2.0 | 8.0 | 0.00 | 0.00 | 0.00 | 21 | 1021.3 |
| 20260502161518 | 62 | 96 | 2.0 | 9.0 | 0.00 | 0.00 | 0.00 | 20 | 1021.4 |
| 20260502161006 | 62 | 22 | 2.0 | 9.0 | 0.00 | 0.00 | 0.00 | 19 | 1021.5 |
| 20260502160510 | 62 | 76 | 2.0 | 8.0 | 0.00 | 0.00 | 0.00 | 19 | 1021.5 |
| 20260502152007 | 60 | 124 | 1.0 | 4.0 | 0.00 | 0.00 | 0.00 | 24 | 1021.9 |
| 20260502151512 | 60 | 88 | 1.0 | 3.0 | 0.00 | 0.00 | 0.00 | 25 | 1021.9 |
| 20260502151007 | 59 | 74 | 1.0 | 3.0 | 0.00 | 0.00 | 0.00 | 27 | 1022.0 |
| 20260502150507 | 58 | 171 | 1.0 | 3.0 | 0.00 | 0.00 | 0.00 | 28 | 1022.0 |
| 20260502130508 | 36 | 138 | 0.0 | 1.0 | 0.00 | 0.00 | 0.00 | 66 | 1022.4 |
| 20260502123507 | 33 | 221 | 0.0 | 0.0 | 0.00 | 0.00 | 0.00 | 71 | 1022.2 |
| 20260502123020 | 33 | 221 | 0.0 | 0.0 | 0.00 | 0.00 | 0.00 | 71 | 1022.2 |
| 20260502122507 | 33 | 221 | 0.0 | 0.0 | 0.00 | 0.00 | 0.00 | 70 | 1022.2 |
| 20260502122006 | 33 | 221 | 0.0 | 0.0 | 0.00 | 0.00 | 0.00 | 69 | 1022.1 |
| 20260502121504 | 33 | 202 | 0.0 | 0.0 | 0.00 | 0.00 | 0.00 | 68 | 1022.1 |
| 20260502121004 | 33 | 206 | 0.0 | 0.0 | 0.00 | 0.00 | 0.00 | 68 | 1022.0 |
| 20260502120503 | 33 | 206 | 0.0 | 2.0 | 0.00 | 0.00 | 0.00 | 68 | 1022.1 |
| 20260502115508 | 34 | 207 | 0.0 | 2.0 | 0.00 | 0.00 | 0.00 | 67 | 1022.0 |
| 20260502115009 | 34 | 207 | 0.0 | 2.0 | 0.00 | 0.00 | 0.00 | 66 | 1022.1 |
| 20260502114524 | 34 | 207 | 0.0 | 2.0 | 0.00 | 0.00 | 0.00 | 66 | 1022.0 |
| 20260502114003 | 35 | 207 | 0.0 | 2.0 | 0.00 | 0.00 | 0.00 | 65 | 1022.0 |
| 20260502113504 | 35 | 207 | 0.0 | 2.0 | 0.00 | 0.00 | 0.00 | 64 | 1022.0 |
| 20260502113007 | 35 | 208 | 0.0 | 2.0 | 0.00 | 0.00 | 0.00 | 64 | 1021.9 |
| 20260502112503 | 36 | 210 | 0.0 | 2.0 | 0.00 | 0.00 | 0.00 | 62 | 1021.9 |
| 20260502112005 | 36 | 246 | 0.0 | 2.0 | 0.00 | 0.00 | 0.00 | 62 | 1022.0 |
| 20260502111516 | 36 | 346 | 0.0 | 2.0 | 0.00 | 0.00 | 0.00 | 60 | 1021.9 |
| 20260502111008 | 37 | 346 | 0.0 | 2.0 | 0.00 | 0.00 | 0.00 | 60 | 1021.9 |
| 20260502110511 | 38 | 346 | 0.0 | 2.0 | 0.00 | 0.00 | 0.00 | 59 | 1021.8 |
| 20260502110004 | 38 | 346 | 0.0 | 2.0 | 0.00 | 0.00 | 0.00 | 56 | 1021.8 |
| 20260502105505 | 39 | 346 | 0.0 | 2.0 | 0.00 | 0.00 | 0.00 | 54 | 1021.8 |
| 20260502105003 | 39 | 346 | 0.0 | 2.0 | 0.00 | 0.00 | 0.00 | 53 | 1021.8 |
| 20260502104521 | 39 | 346 | 0.0 | 2.0 | 0.00 | 0.00 | 0.00 | 54 | 1021.8 |
| 20260502104005 | 39 | 348 | 1.0 | 2.0 | 0.00 | 0.00 | 0.00 | 54 | 1021.8 |
| 20260502103506 | 38 | 338 | 0.0 | 2.0 | 0.00 | 0.00 | 0.00 | 55 | 1021.7 |
| 20260502103020 | 38 | 319 | 0.0 | 2.0 | 0.00 | 0.00 | 0.00 | 56 | 1021.7 |
| 20260502102513 | 37 | 319 | 0.0 | 2.0 | 0.00 | 0.00 | 0.00 | 56 | 1021.7 |
| 20260502102003 | 37 | 279 | 0.0 | 2.0 | 0.00 | 0.00 | 0.00 | 58 | 1021.7 |
| 20260502101509 | 36 | 197 | 0.0 | 2.0 | 0.00 | 0.00 | 0.00 | 61 | 1021.6 |
| 20260502101003 | 36 | 197 | 0.0 | 2.0 | 0.00 | 0.00 | 0.00 | 62 | 1021.5 |
| 20260502100504 | 36 | 195 | 1.0 | 3.0 | 0.00 | 0.00 | 0.00 | 64 | 1021.5 |
| 20260502071522 | 42 | 192 | 0.0 | 2.0 | 0.00 | 0.00 | 0.00 | 51 | 1021.8 |
| 20260502071003 | 42 | 192 | 0.0 | 2.0 | 0.00 | 0.00 | 0.00 | 50 | 1021.8 |
| 20260502070504 | 43 | 192 | 0.0 | 2.0 | 0.00 | 0.00 | 0.00 | 49 | 1021.9 |
| 20260502070007 | 43 | 192 | 0.0 | 2.0 | 0.00 | 0.00 | 0.00 | 49 | 1021.9 |
| 20260502065504 | 44 | 220 | 0.0 | 2.0 | 0.00 | 0.00 | 0.00 | 48 | 1021.9 |
| 20260502065013 | 44 | 221 | 0.0 | 2.0 | 0.00 | 0.00 | 0.00 | 47 | 1022.0 |
| 20260502064517 | 45 | 194 | 0.0 | 4.0 | 0.00 | 0.00 | 0.00 | 46 | 1022.0 |
| 20260502064007 | 46 | 208 | 1.0 | 4.0 | 0.00 | 0.00 | 0.00 | 45 | 1022.0 |
| 20260502063511 | 46 | 199 | 1.0 | 2.0 | 0.00 | 0.00 | 0.00 | 43 | 1022.0 |
| 20260502063007 | 46 | 185 | 0.0 | 2.0 | 0.00 | 0.00 | 0.00 | 44 | 1022.1 |
| 20260502062503 | 46 | 234 | 1.0 | 4.0 | 0.00 | 0.00 | 0.00 | 43 | 1022.0 |
| 20260502062004 | 46 | 235 | 1.0 | 4.0 | 0.00 | 0.00 | 0.00 | 43 | 1022.0 |
| 20260502061513 | 46 | 184 | 0.0 | 2.0 | 0.00 | 0.00 | 0.00 | 43 | 1022.0 |
| 20260502061008 | 47 | 209 | 1.0 | 3.0 | 0.00 | 0.00 | 0.00 | 43 | 1022.0 |
| 20260502060506 | 46 | 215 | 1.0 | 3.0 | 0.00 | 0.00 | 0.00 | 42 | 1022.0 |
| 20260502060034 | 46 | 189 | 1.0 | 2.0 | 0.00 | 0.00 | 0.00 | 43 | 1022.0 |
| 20260502055506 | 47 | 230 | 0.0 | 2.0 | 0.00 | 0.00 | 0.00 | 44 | 1022.1 |
| 20260502055003 | 47 | 230 | 0.0 | 2.0 | 0.00 | 0.00 | 0.00 | 44 | 1022.1 |
| 20260502054506 | 46 | 232 | 0.0 | 2.0 | 0.00 | 0.00 | 0.00 | 43 | 1022.1 |
| 20260502054003 | 46 | 227 | 0.0 | 2.0 | 0.00 | 0.00 | 0.00 | 43 | 1022.0 |
| 20260502053505 | 46 | 232 | 0.0 | 2.0 | 0.00 | 0.00 | 0.00 | 44 | 1021.8 |
| 20260502053016 | 47 | 238 | 0.0 | 2.0 | 0.00 | 0.00 | 0.00 | 44 | 1021.8 |
| 20260502052514 | 47 | 238 | 0.0 | 0.0 | 0.00 | 0.00 | 0.00 | 44 | 1021.8 |
| 20260502052007 | 47 | 238 | 0.0 | 2.0 | 0.00 | 0.00 | 0.00 | 44 | 1021.8 |
| 20260502051524 | 47 | 238 | 0.0 | 2.0 | 0.00 | 0.00 | 0.00 | 42 | 1021.8 |
| 20260502051006 | 47 | 238 | 0.0 | 2.0 | 0.00 | 0.00 | 0.00 | 42 | 1021.7 |
| 20260502050502 | 47 | 238 | 0.0 | 2.0 | 0.00 | 0.00 | 0.00 | 43 | 1021.7 |
| 20260502050016 | 47 | 246 | 0.0 | 26.0 | 0.00 | 0.00 | 0.00 | 41 | 1021.8 |
| 20260502045506 | 48 | 250 | 0.0 | 26.0 | 0.00 | 0.00 | 0.00 | 43 | 1021.8 |
| 20260502045010 | 48 | 247 | 0.0 | 2.0 | 0.00 | 0.00 | 0.00 | 43 | 1021.8 |
| 20260502044518 | 48 | 199 | 0.0 | 2.0 | 0.00 | 0.00 | 0.00 | 43 | 1021.8 |
| 20260502044008 | 48 | 198 | 0.0 | 2.0 | 0.00 | 0.00 | 0.00 | 42 | 1021.8 |
| 20260502043510 | 48 | 198 | 0.0 | 2.0 | 0.00 | 0.00 | 0.00 | 42 | 1021.8 |
| 20260502043003 | 48 | 198 | 0.0 | 2.0 | 0.00 | 0.00 | 0.00 | 41 | 1021.8 |
| 20260502042502 | 48 | 198 | 0.0 | 2.0 | 0.00 | 0.00 | 0.00 | 41 | 1021.8 |
| 20260502042004 | 48 | 198 | 0.0 | 2.0 | 0.00 | 0.00 | 0.00 | 41 | 1021.7 |
| 20260502041529 | 49 | 198 | 0.0 | 2.0 | 0.00 | 0.00 | 0.00 | 40 | 1021.7 |
| 20260502041005 | 49 | 198 | 0.0 | 2.0 | 0.00 | 0.00 | 0.00 | 39 | 1021.6 |
| 20260502040509 | 49 | 119 | 0.0 | 2.0 | 0.00 | 0.00 | 0.00 | 40 | 1021.6 |
| 20260502040043 | 49 | 213 | 0.0 | 2.0 | 0.00 | 0.00 | 0.00 | 40 | 1021.5 |
| 20260502035506 | 49 | 209 | 0.0 | 2.0 | 0.00 | 0.00 | 0.00 | 39 | 1021.5 |
| 20260502035011 | 49 | 210 | 0.0 | 2.0 | 0.00 | 0.00 | 0.00 | 37 | 1021.4 |
| 20260502034506 | 49 | 209 | 0.0 | 2.0 | 0.00 | 0.00 | 0.00 | 36 | 1021.3 |
| 20260502034005 | 50 | 207 | 0.0 | 2.0 | 0.00 | 0.00 | 0.00 | 39 | 1021.2 |
| 20260502033505 | 50 | 206 | 0.0 | 2.0 | 0.00 | 0.00 | 0.00 | 39 | 1021.0 |
| 20260502033027 | 50 | 206 | 0.0 | 2.0 | 0.00 | 0.00 | 0.00 | 37 | 1020.8 |
| 20260502032507 | 50 | 221 | 0.0 | 2.0 | 0.00 | 0.00 | 0.00 | 36 | 1020.8 |
| 20260502032011 | 51 | 221 | 0.0 | 2.0 | 0.00 | 0.00 | 0.00 | 35 | 1020.6 |
| 20260502031526 | 51 | 221 | 0.0 | 2.0 | 0.00 | 0.00 | 0.00 | 35 | 1020.5 |
| 20260502031009 | 51 | 221 | 0.0 | 2.0 | 0.00 | 0.00 | 0.00 | 32 | 1020.5 |
| 20260502030502 | 51 | 220 | 0.0 | 2.0 | 0.00 | 0.00 | 0.00 | 34 | 1020.4 |
| 20260502030020 | 51 | 220 | 0.0 | 2.0 | 0.00 | 0.00 | 0.00 | 33 | 1020.4 |
| 20260502025506 | 51 | 190 | 0.0 | 2.0 | 0.00 | 0.00 | 0.00 | 34 | 1020.3 |
| 20260502025012 | 52 | 190 | 0.0 | 2.0 | 0.00 | 0.00 | 0.00 | 33 | 1020.2 |
| 20260502024518 | 52 | 190 | 0.0 | 2.0 | 0.00 | 0.00 | 0.00 | 33 | 1020.1 |
| 20260502024010 | 52 | 190 | 0.0 | 2.0 | 0.00 | 0.00 | 0.00 | 32 | 1020.0 |
| 20260502023507 | 53 | 138 | 0.0 | 2.0 | 0.00 | 0.00 | 0.00 | 32 | 1019.9 |
| 20260502023032 | 53 | 88 | 0.0 | 2.0 | 0.00 | 0.00 | 0.00 | 31 | 1019.8 |
| 20260502022503 | 54 | 87 | 0.0 | 2.0 | 0.00 | 0.00 | 0.00 | 31 | 1019.7 |
| 20260502022005 | 55 | 62 | 0.0 | 2.0 | 0.00 | 0.00 | 0.00 | 29 | 1019.6 |
| 20260502021520 | 55 | 61 | 0.0 | 2.0 | 0.00 | 0.00 | 0.00 | 27 | 1019.5 |
| 20260502021008 | 56 | 61 | 0.0 | 1.0 | 0.00 | 0.00 | 0.00 | 26 | 1019.5 |
| 20260502020510 | 57 | 61 | 0.0 | 0.0 | 0.00 | 0.00 | 0.00 | 25 | 1019.4 |
| 20260502020028 | 57 | 61 | 0.0 | 2.0 | 0.00 | 0.00 | 0.00 | 25 | 1019.4 |
| 20260502015509 | 58 | 61 | 0.0 | 2.0 | 0.00 | 0.00 | 0.00 | 23 | 1019.3 |
| 20260502015013 | 58 | 61 | 0.0 | 3.0 | 0.00 | 0.00 | 0.00 | 23 | 1019.3 |
| 20260502014504 | 59 | 44 | 1.0 | 3.0 | 0.00 | 0.00 | 0.00 | 23 | 1019.2 |
| 20260502014006 | 59 | 42 | 1.0 | 5.0 | 0.00 | 0.00 | 0.00 | 23 | 1019.1 |
| 20260502013506 | 59 | 39 | 2.0 | 5.0 | 0.00 | 0.00 | 0.00 | 21 | 1019.1 |
| 20260502013019 | 59 | 98 | 0.0 | 2.0 | 0.00 | 0.00 | 0.00 | 21 | 1019.1 |
| 20260502012507 | 60 | 98 | 0.0 | 2.0 | 0.00 | 0.00 | 0.00 | 22 | 1019.0 |
| 20260502012010 | 60 | 98 | 0.0 | 4.0 | 0.00 | 0.00 | 0.00 | 22 | 1018.9 |
| 20260502011526 | 60 | 38 | 0.0 | 4.0 | 0.00 | 0.00 | 0.00 | 21 | 1018.9 |
| 20260502011009 | 60 | 82 | 1.0 | 2.0 | 0.00 | 0.00 | 0.00 | 21 | 1018.8 |
| 20260502010503 | 60 | 83 | 0.0 | 2.0 | 0.00 | 0.00 | 0.00 | 20 | 1018.9 |
| 20260502010019 | 60 | 328 | 0.0 | 4.0 | 0.00 | 0.00 | 0.00 | 19 | 1018.8 |
| 20260502005508 | 60 | 328 | 2.0 | 4.0 | 0.00 | 0.00 | 0.00 | 19 | 1018.8 |
| 20260502005009 | 60 | 19 | 0.0 | 3.0 | 0.00 | 0.00 | 0.00 | 19 | 1018.7 |
| 20260502004528 | 61 | 274 | 1.0 | 3.0 | 0.00 | 0.00 | 0.00 | 19 | 1018.7 |
| 20260502004010 | 61 | 50 | 1.0 | 5.0 | 0.00 | 0.00 | 0.00 | 18 | 1018.7 |
| 20260502003510 | 62 | 34 | 1.0 | 6.0 | 0.00 | 0.00 | 0.00 | 18 | 1018.7 |
| 20260502003028 | 62 | 75 | 1.0 | 6.0 | 0.00 | 0.00 | 0.00 | 18 | 1018.7 |
| 20260502002503 | 63 | 344 | 1.0 | 4.0 | 0.00 | 0.00 | 0.00 | 18 | 1018.7 |
| 20260502002009 | 62 | 5 | 0.0 | 5.0 | 0.00 | 0.00 | 0.00 | 18 | 1018.6 |
| 20260502001512 | 62 | 284 | 2.0 | 5.0 | 0.00 | 0.00 | 0.00 | 19 | 1018.6 |
| 20260502001008 | 62 | 342 | 1.0 | 8.0 | 0.00 | 0.00 | 0.00 | 19 | 1018.7 |
| 20260502000510 | 62 | 19 | 2.0 | 8.0 | 0.00 | 0.00 | 0.00 | 18 | 1018.7 |
| 20260502000047 | 63 | 348 | 3.0 | 10.0 | 0.00 | 0.00 | 0.00 | 18 | 1018.7 |
| 20260501235508 | 63 | 260 | 2.0 | 10.0 | 0.00 | 0.00 | 0.00 | 18 | 1018.5 |
| 20260501235008 | 63 | 346 | 2.0 | 10.0 | 0.00 | 0.00 | 0.00 | 17 | 1018.6 |
| 20260501234513 | 62 | 310 | 2.0 | 9.0 | 0.00 | 0.00 | 0.00 | 17 | 1018.5 |
| 20260501234006 | 63 | 9 | 4.0 | 8.0 | 0.00 | 0.00 | 0.00 | 17 | 1018.6 |
| 20260501233506 | 63 | 24 | 1.0 | 3.0 | 0.00 | 0.00 | 0.00 | 18 | 1018.6 |
| 20260501233024 | 63 | 341 | 1.0 | 3.0 | 0.00 | 0.00 | 0.00 | 18 | 1018.6 |
| 20260501232512 | 62 | 263 | 1.0 | 4.0 | 0.00 | 0.00 | 0.00 | 18 | 1018.6 |
| 20260501232013 | 62 | 338 | 0.0 | 10.0 | 0.00 | 0.00 | 0.00 | 18 | 1018.6 |
| 20260501231527 | 62 | 58 | 4.0 | 10.0 | 0.00 | 0.00 | 0.00 | 18 | 1018.7 |
| 20260501231010 | 63 | 106 | 3.0 | 9.0 | 0.00 | 0.00 | 0.00 | 18 | 1018.6 |
| 20260501230503 | 63 | 48 | 3.0 | 9.0 | 0.00 | 0.00 | 0.00 | 18 | 1018.6 |
| 20260501230047 | 64 | 24 | 1.0 | 3.0 | 0.00 | 0.00 | 0.00 | 17 | 1018.5 |
| 20260501225506 | 63 | 246 | 1.0 | 4.0 | 0.00 | 0.00 | 0.00 | 19 | 1018.5 |
| 20260501225011 | 62 | 253 | 1.0 | 6.0 | 0.00 | 0.00 | 0.00 | 18 | 1018.5 |
| 20260501224528 | 62 | 334 | 3.0 | 10.0 | 0.00 | 0.00 | 0.00 | 18 | 1018.6 |